Find Starlink 37875

NORAD ID: 69967 Int'l Des: 2026-157 Owner: SPXS Country: US Constellation: starlink operational
LEOCIRCULAR

当前视图

正在加载3D地球...

About Starlink 37875

Starlink 37875 (NORAD 69967) is a starlink constellation satellite (v2 mini) launched Jul 9, 2026 by SPXS of US. It operates in LEO, CIRCULAR orbit with a mass of 575.00 kg.

即将过境

Passes for default location (London). Set your location on the main map for personalized predictions.

高度历史

Loading altitude history...

两行轨道根数

1 69967U 26157AA 26238.00001156 .00047773 00000-0 14178-2 0 9993
2 69967 53.1584 92.8028 0001600 87.2691 128.0727 15.34360686 5941
Epoch: Aug 26, 2026 • Age: 17 hours

当前状态

高度 462.5 km
远地点 / 近地点 N/A
速度 7.64 km/s
星下点 13.52°N, 29.69°E
发射日期 Jul 9, 2026
运行时间 0.1 years
类型 internet

技术详情

分类 Payload
质量 575.00 kg
干质量 530.00 kg
总质量 575.00 kg
长度 0.30 m
直径 4.10 m
跨度 29.00 m
形状 Box + pan
制造商 SPXS
平台类型 Starlink V2MO
阶段状态 In Orbit
所有者/国家 SPXS/US

Most Searched